Lid_Strength_Index
7 8 6 6 11 13 16 14 11 11 11 9 9 10 11 10 11 12 5 1 1 1 -0 -0 -0 -1 -1 -1 -1 -1 -1 -2 -1 -1 -1 -1 -1 -1 -1 -2 -2 -2 -2 -2 -2 -2 -2 -2 -2
9 6 5 8 16 17 16 12 12 10 8 7 8 9 11 10 6 5 5 1 1 0 -0 -0 0 -1 -1 -1 -1 -1 -1 -1 -2 -2 -2 -1 -1 -1 -2 -2 -2 -2 -2 -2 -2 -2 -2 -2 -2
9 4 8 11 16 18 17 14 10 9 9 9 9 9 10 9 5 4 3 2 1 0 -0 -0 0 -1 -1 -1 -1 -1 -1 -1 -2 -2 -2 -2 -2 -2 -2 -2 -1 -2 -2 -2 -2 -2 -2 -2 -2
9 7 10 14 15 14 15 13 14 12 10 9 11 11 8 5 6 6 1 1 1 0 -0 0 -0 -1 -1 -1 -1 -1 -1 -1 -1 -1 -2 -2 -1 -2 -2 -2 -2 -2 -2 -2 -2 -2 -2 -2 -2
9 11 16 17 16 13 11 14 14 13 13 12 11 11 11 5 11 11 7 1 1 1 0 0 -0 -0 -1 -1 -1 -1 -1 -1 -1 -1 -1 -1 -2 -2 -2 -2 -2 -2 -2 -2 -2 -1 -2 -2 -2
13 13 18 20 18 14 15 15 14 15 14 13 14 14 11 10 12 11 10 3 1 0 0 0 1 1 0 -0 -1 -1 -1 -1 -1 -1 -1 -1 -1 -1 -2 -2 -2 -2 -2 -2 -2 -2 -2 -2 -2
15 17 21 20 18 16 16 15 16 16 15 13 13 12 8 9 11 11 10 6 1 0 1 0 -0 1 2 1 0 -0 -0 -1 -1 -1 -1 -1 -1 -1 -1 -1 -2 -2 -2 -2 -2 -1 -1 -1 -2
13 16 20 19 18 17 16 15 15 16 15 12 12 12 12 10 10 10 10 8 7 2 0 1 0 -0 -0 -0 2 1 1 0 0 0 1 1 0 0 -0 -0 -1 -2 -2 -2 -1 -2 -1 -2 -2
13 19 20 18 17 17 16 16 15 14 15 14 13 12 10 9 8 9 11 11 9 7 2 0 1 0 0 -0 1 2 2 1 1 1 2 2 -0 0 1 1 -1 -2 -1 -1 -1 -2 -2 -2 -2
16 19 20 16 17 18 16 16 15 16 16 16 14 12 11 10 10 10 12 12 11 9 7 5 1 0 0 0 -0 1 0 -0 -0 0 1 -0 0 -0 -0 1 0 -1 -1 -0 -1 -1 -1 -0 2
17 19 16 16 16 14 15 15 15 16 17 15 16 14 12 11 11 10 10 11 10 8 7 6 4 0 0 0 0 1 -0 -0 -0 0 1 -0 0 1 1 0 -0 0 1 1 -0 0 2 4 4
18 16 15 15 14 14 15 14 15 15 14 13 13 12 11 11 11 10 10 10 10 9 9 7 5 3 0 0 1 1 0 -0 -0 -0 0 0 0 1 1 0 1 1 1 2 2 2 3 4 5
17 16 14 13 13 14 13 14 15 13 11 12 11 11 11 11 10 10 9 8 9 9 9 8 6 3 1 0 0 1 0 0 -0 0 0 0 0 1 1 1 1 1 1 1 2 3 4 5 5
15 14 14 13 12 12 13 13 12 12 11 10 10 10 10 10 10 9 9 8 7 9 8 6 6 5 2 1 0 0 0 -0 0 -0 0 0 0 1 1 1 2 2 1 2 2 3 4 5 6
14 16 14 12 11 11 10 13 13 11 10 10 10 9 8 8 8 8 8 8 7 7 7 7 7 5 5 1 1 0 0 0 0 0 0 0 0 1 1 2 2 2 2 2 3 3 4 5 5
15 15 17 13 11 11 12 16 12 10 11 11 10 9 9 8 7 7 7 7 7 6 8 6 6 6 5 3 1 1 0 0 0 0 0 0 0 1 2 2 1 2 3 3 3 3 5 6 6
18 21 17 15 12 12 13 15 12 10 10 11 10 9 9 9 8 8 7 7 7 6 6 7 8 7 7 5 1 0 0 0 0 0 0 0 0 1 2 2 1 2 3 3 3 4 4 6 7
19 17 16 15 14 13 14 14 12 11 11 11 11 11 9 9 8 7 6 6 6 6 6 6 7 7 7 7 2 1 1 0 0 1 0 0 0 1 1 2 2 2 3 3 4 4 5 6 6
16 16 16 15 13 14 15 15 13 11 11 13 14 14 12 11 9 8 7 6 6 6 5 6 6 7 8 7 4 2 2 1 1 1 0 -0 -0 1 1 2 2 2 2 2 4 4 6 6 6
16 17 18 15 14 14 14 15 13 13 14 13 14 14 13 12 11 10 9 8 7 6 6 4 5 6 7 6 4 1 1 1 1 0 0 0 1 0 1 1 2 3 3 3 3 4 5 5 6
18 17 19 16 14 14 16 19 16 14 13 13 12 12 12 12 12 11 9 8 7 7 6 4 6 6 6 5 3 1 1 1 2 1 1 0 0 -0 0 1 1 2 2 3 4 4 4 6 6
19 14 14 16 18 24 16 24 17 16 15 14 14 13 13 13 12 11 9 8 8 7 7 5 6 7 6 4 2 2 3 3 2 2 2 1 0 0 0 1 1 1 2 2 3 4 4 5 6
16 13 15 17 21 18 22 21 20 17 18 16 15 14 13 13 12 11 9 7 7 7 8 6 6 7 7 4 3 2 3 2 2 2 2 2 1 1 0 0 1 1 1 2 2 3 4 4 5
13 16 18 18 21 27 24 19 22 19 18 16 15 14 13 13 12 10 8 7 8 8 7 6 5 4 4 4 4 2 2 2 3 3 2 2 1 1 1 0 0 1 1 2 2 3 4 4 4
17 23 29 27 28 27 25 22 22 16 15 15 16 14 14 13 12 11 9 7 7 5 4 2 2 3 5 5 5 4 3 2 3 3 3 3 2 2 1 1 1 1 1 2 2 3 4 4 5
20 22 27 30 28 24 23 25 19 14 13 14 14 14 13 13 12 11 9 7 6 6 5 4 4 4 5 7 7 7 5 4 4 3 3 4 4 2 2 1 1 1 1 2 2 3 4 4 4
19 23 17 21 28 28 24 22 17 14 15 15 15 14 14 13 12 10 9 8 7 7 7 5 5 5 5 7 7 7 7 6 5 5 4 6 6 7 7 6 6 7 7 4 3 3 3 3 4
19 16 23 24 27 30 27 30 25 18 18 16 15 14 14 12 11 10 9 8 8 8 7 6 5 5 6 6 6 9 9 9 8 8 7 7 8 8 8 9 9 10 10 9 9 9 9 8 8
19 21 22 22 19 23 24 24 16 17 16 16 15 14 14 12 12 11 10 9 9 9 9 8 7 7 7 7 7 9 9 9 9 10 10 10 10 10 10 11 11 12 12 12 12 12 12 12 12
16 18 18 20 23 19 19 22 15 15 15 15 15 15 13 13 12 11 11 11 10 10 9 9 8 8 8 8 9 9 9 10 11 11 11 11 11 12 12 11 12 12 13 13 13 14 13 13 14